Regional Weather Roundup
Issued by NWS Wakefield, VA

Home | Current Version | Previous Version | Text Only | Print | Product List | Glossary On
Versions: 1 2 3 4 5 6 7 8 9 10 11 12 13 14 15 16 17 18 19 20 21 22 23 24 25 26 27 28 29 30 31 32 33 34 35 36 37 38 39 40 41 42 43 44 45 46 47 48 49 50
125
ASUS41 KAKQ 231815
RWRAKQ

REGIONAL WEATHER ROUNDUP
NATIONAL WEATHER SERVICE WAKEFIELD VA
200 PM EDT TUE MAY 23 2017

Note: "fair" indicates few or no clouds below 12,000 feet with no
significant weather and/or obstructions to visibility. * = Denotes
station may not report precipitation (e.g., rain,snow,etc.),
thunder or fog.

VAZ042-051-052>054-056-231900-
NORTHERN VIRGINIA

CITY           SKY/WX    TMP DP  RH WIND       PRES   REMARKS
WASH NATIONAL  CLOUDY    67  59  75 E6        29.90F
DULLES         CLOUDY    64  54  69 E6        29.90F
FORT BELVOIR   CLOUDY    66  58  74 SE3       29.89F
QUANTICO       CLOUDY    66  61  84 E7        29.90F
FREDERICKSBRG* CLOUDY    66  61  85 NE6       29.88F
STAFFORD*      CLOUDY    64  61  90 NE3       29.93F
WARRENTON      CLOUDY    65  57  73 NE5       29.89F
CULPEPER*      LGT RAIN  65  60  85 NE3       29.91F
MANASSAS*      LGT RAIN  65  59  81 E5        29.90F
LEESBURG*      DRIZZLE   64  55  72 E3        29.92F
WINCHESTER     CLOUDY    61  52  72 E6        29.92S
FRONT ROYAL*   CLOUDY    61  55  82 NE3       29.90F
LURAY*         CLOUDY    63  54  72 NE6       29.91F
$$

VAZ048-049-060>072-079>083-231900-
CENTRAL AND SOUTH CENTRAL VIRGINIA

CITY           SKY/WX    TMP DP  RH WIND       PRES   REMARKS
RICHMOND       CLOUDY    65  62  90 E10       29.86F
CHESTERFIELD*  NOT AVBL
PETERSBURG*    CLOUDY    65  62  92 NE8       29.86F
HANOVER        CLOUDY    66  60  81 NE6       29.88F
TAPPAHANNOCK*  CLOUDY    65  65  97 E8        29.89F FOG
QUINTON*       CLOUDY    65  64  97 E7G16     29.87F
CHARLOTTSVILLE CLOUDY    63  56  78 NE8       29.89F
GORDONSVILLE*  CLOUDY    63  59  87 NE3       29.89F
ORANGE*        RAIN      63  57  82 CALM      29.89F
LOUISA*        CLOUDY    68  63  83 CALM      29.87F
BUMPASS*       CLOUDY    64  61  88 E5        29.87F
FARMVILLE*     RAIN      62  62 100 N5        29.86S
CREWE*         CLOUDY    63  59  87 CALM      29.85F
FORT PICKETT*  CLOUDY   N/A N/A N/A NE6       29.85F
CHASE CITY*    CLOUDY    63  61  94 NE6       29.82F
CLARKSVILLE*   CLOUDY    63  63 100 NE3       29.81F
SOUTH HILL*    CLOUDY    64  64 100 NE3       29.88F
LAWRENCEVILLE* CLOUDY    65  64  97 NE7       29.83F
EMPORIA*       RAIN      64  64 100 E5        29.84F
$$

VAZ088>098-231900-
SOUTHEAST VIRGINIA

CITY           SKY/WX    TMP DP  RH WIND       PRES   REMARKS
NORFOLK        LGT RAIN  63  62  97 E12       29.84F
VIRGINIA BEACH LGT RAIN  62  60  93 E10       29.83F
NORFOLK NAVAL  NOT AVBL
WEST POINT*    CLOUDY    64  62  91 E7        29.88F
SALUDA*        CLOUDY    64  63  96 E7        29.88F
NEWPORT NEWS   CLOUDY    64  62  93 E12       29.86F
LANGLEY AFB    CLOUDY    64  63  94 E14       29.84F
FORT EUSTIS    DRIZZLE   64  63  94 E10       29.82F
WILLIAMSBURG*  CLOUDY    66  66 100 CALM      29.87F
HR EXEC AP*    CLOUDY    66  63  88 E10       29.82F
FRANKLIN*      LGT RAIN  65  64  93 E8        29.83F
US460-WAKEFLD  LGT RAIN  64  63  96 E3        29.84F FOG
$$

VAZ020-022-025-037-045-231900-
WEST CENTRAL AND SOUTHWEST VIRGINIA

CITY           SKY/WX    TMP DP  RH WIND       PRES   REMARKS
STAUNTON*      CLOUDY    61  51  70 NE6       29.92F
WAYNESBORO*    CLOUDY    59  53  80 N6        29.90F
HOT SPRINGS VA LGT RAIN  50  48  93 E8        29.91F VSB<1/4
LYNCHBURG      LGT RAIN  58  55  90 NE12      29.88F FOG
DANVILLE       RAIN      60  60 100 NE13      29.83F FOG
SOUTH BOSTON*  CLOUDY    61  59  95 N6        29.82F
MARTINSVILLE   LGT RAIN  60  58  93 N7        29.86F
ROANOKE        CLOUDY    62  57  83 CALM      29.88F
BLACKSBURG     CLOUDY    58  55  88 E8G17     29.89F
DUBLIN*        LGT RAIN  59  53  79 E10       29.86F
MARION*        LGT RAIN  62  59  90 E8        29.85F
HILLSVILLE*    RAIN      59  55  87 CALM      29.83F
RICHLANDS*     HVY RAIN  60  59  96 SE5       29.83F
WISE*          DRIZZLE   63  63 100 S3        29.82F
ABINGDON*      DRIZZLE   65  64  94 E7        29.80F
$$

MDZ021>025-VAZ099-100-231900-
SOUTHERN MARYLAND AND THE DELMARVA PENINSULA

CITY           SKY/WX    TMP DP  RH WIND       PRES   REMARKS
PATUXENT RIVER CLOUDY    63  61  93 E12       29.89F
BAY BRIDGE APT CLOUDY    64  59  82 E8        29.91F
LEONARDTOWN    CLOUDY    63  59  88 E7        29.91S
DOVER          CLOUDY    64  64 100 SE6       29.90F
GEORGETOWN     CLOUDY    64  51  62 E12       29.91F
EASTON         CLOUDY    66  57  72 E7        29.94F
CAMBRIDGE      PTSUNNY   63  55  77 E12G20    29.90F
SALISBURY      CLOUDY    63  54  72 E10       29.90F
OCEAN CITY     LGT RAIN  60  55  83 E9        29.92F
WALLOPS ISLAND LGT RAIN  60  59  96 NE12      29.91F
ACCOMACK*      CLOUDY    62  48  60 E12       29.88F
$$

NCZ012>017-030>032-231900-
NORTH CENTRAL AND EASTERN NORTH CAROLINA

CITY           SKY/WX    TMP DP  RH WIND       PRES   REMARKS
ROANOKE RAPIDS DRIZZLE   66  66 100 E9G16     29.80F
RALEIGH        CLOUDY    70  67  90 E9        29.79F
ELIZABETH CITY LGT RAIN  68  68 100 E12       29.81F FOG
AHOSKIE*       LGT RAIN  65  64  97 NE9       29.82F
EDENTON*       CLOUDY    70  67  92 E6        29.81F
CURRITUCK*     RAIN     N/A N/A N/A E8        29.84F
KILL DEVIL HLS NOT AVBL
MANTEO         LGT RAIN  67  66  97 SE8       29.82F
CAPE HATTERAS  LGT RAIN  74  70  87 S18       29.80
TARBORO*       NOT AVBL
GOLDSBORO      CLOUDY    70  70 100 N3        29.75F
WASHINGTON     CLOUDY    72  70  93 NE8       29.78F
GREENVILLE     CLOUDY    70  70 100 NE3       29.80F FOG
NEW BERN       CLOUDY    75  73  93 SW8       29.78F
WILMINGTON     LGT RAIN  73  71  93 S12       29.78F FOG
$$

VAZ048-231900-
ELSEWHERE

CITY           SKY/WX    TMP DP  RH WIND       PRES   REMARKS
HARRISBURG PA  CLOUDY    65  48  54 CALM      29.91F
BALTIMORE      CLOUDY    64  57  78 E8        29.91F
ANNAPOLIS      CLOUDY    65  61  87 NE7       29.90F
ANDREWS AFB    CLOUDY    64  58  81 NE7       29.89F
PHILADELPHIA   CLOUDY    66  51  58 E7        29.92F
HENDERSON NC   CLOUDY    64  62  95 NE10G16   29.81F
GREENSBORO     RAIN      64  64 100 NE12      29.79F FOG
ROCKY MOUNT    CLOUDY    69  68  96 VRB6      29.78F
$$

VAZ100-231900-
MARINE

STATION/POSITION TIME  TEMP    WIND        PRES    WAVE   SWELL
                       AIR SEA DIR/SP/G            HT/PER HT/PER
                 (UTC) (F)     (DEG/KT/KT) (MB)    (FT/S) (FT/S)
CAPE MAY NJ      1748   62 61   80/  9/ 14 1012.4F
LEWES DE         1748   60 62   90/ 11/ 13 1012.8F
15NM E FENWICK I 1750   57 56   30/  6/  8 1013.4F   3/ 7   3/ 7
OCEAN-CITY-INLET 1748   59 62   70/  5/ 10 1013.4F
WACHAPREAGUE VA  1748   60 68   50/ 14/ 17 1011.8F
THOMAS POINT MD  1800   64 65  110/ 10/ 10   N/A
GOOSES REEF MD   1750   64     110/ 10/ 12 1013.2F
COVE POINT MD    1748   63     110/  9/ 12 1012.9F
SOLOMONS ISLAND  1748   64 67   90/ 12/ 13   N/A
BISHOPS HEAD MD  1748   62 68   80/ 12/ 14 1012.8F
PINEY POINT MD   1748          120/ 12/ 14   N/A
POTOMAC MD       1750   64      90/ 12/ 16 1011.4F
CAMBRIDGE MD     1742   64 69                N/A
LEWISETTA VA     1736   64 69  100/ 15/ 16 1012.0F
RAPPAHANNOCK LGT 1748           70/ 16/ 18 1012.1F
STINGRAY PT      1750   64     100/ 12/ 14 1011.8F
YORK RVR RNG VA  1748   64      90/ 14/ 16 1010.5F
YORKTOWN VA      1748   65 69  100/  9/ 13 1010.8F
JAMESTOWN VA     1750   65      80/  8/ 14   N/A
DOMINION TERM VA 1748   64      80/ 12/ 19 1010.8F
KIPTOPEKE VA     1748      66   90/  8/ 12   N/A
CHES BAY BRIDGE  1748   62 67   80/ 18/ 21 1010.4F
CAPE HENRY VA    1748   61      70/ 19/ 21   N/A
WILLOUBY STN VA  1748   63     100/ 16/ 19 1010.4F
S CRANEY ISL VA  1748   64      90/ 11/ 13 1010.6F
CAPE HENRY BUOY  1742      62                N/A     3/ 6
1ST LANDING BUOY 1750   63                 1011.5F
CAPE CHARLES BUO 1751      62                N/A     3/ 6
64NM E OF VA BCH 1750   67 64  100/ 16/ 17 1010.9F   4/ 8   2/ 8
DUCK PIER NC     1748   66 65   80/ 12/ 13 1009.4F
44100 DUCK FRF   1705      65                N/A     4/ 6
44056 DUCK FRF   1700      65                N/A     3/ 6
OREGON INLET NC  1742   67 67   80/  6/  8 1009.4F
HATTERAS NC      1748   74 74  180/ 10/ 14 1008.8F
DIAMOND SHLS NC  1750   73 77  190/ 19/ 25 1009.0F   5/ 5   2/ 9
CAPE LOOKOUT NC  1700   72     190/ 14/ 18 1009.0F
$$




USA.gov is the U.S. government's official web portal to all federal, state and local government web resources and services.